Location: Newark
(9.4667°S, 159.8167°E)
Time: 19:59:27
(UTC+00:00)

SR - All Passes

Search period start: 18 November 2019 00:00
Search period end: 28 November 2019 00:00
Orbit: 574 x 882 km, 66.7° (Epoch: 18 November)

Date Brightness Start Highest point End Pass type
(mag) Time Alt. Az. Time Alt. Az. Time Alt. Az.
18 Nov - 02:47:04 10° SSW 02:51:28 60° WNW 02:56:14 10° N daylight
18 Nov - 15:18:37 10° NW 15:23:50 51° WSW 15:28:38 10° S visible
19 Nov - 01:57:37 10° S 02:01:55 46° ESE 02:06:32 10° NE daylight
19 Nov - 14:28:56 10° N 14:34:16 61° ENE 14:39:10 10° SSE night (unlit)
20 Nov - 01:09:25 10° SSE 01:12:21 17° ESE 01:15:24 10° ENE daylight
20 Nov - 02:50:30 10° WSW 02:54:07 23° WNW 02:57:59 10° NNW daylight
20 Nov - 13:40:23 10° NNE 13:44:39 24° ENE 13:48:39 10° ESE night (unlit)
20 Nov - 15:22:29 10° WNW 15:26:28 22° WSW 15:30:13 10° SSW night (unlit)
21 Nov - 02:00:04 10° SSW 02:04:31 66° WNW 02:09:22 10° NNE daylight
21 Nov - 14:31:40 10° NNW 14:36:54 56° WSW 14:41:43 10° S night (unlit)
22 Nov - 01:10:43 10° S 01:14:59 42° ESE 01:19:33 10° NE daylight
22 Nov - 13:42:04 10° N 13:47:20 56° ENE 13:52:10 10° SSE night (unlit)
23 Nov - 00:22:41 10° SSE 00:25:25 16° ESE 00:28:14 10° ENE daylight
23 Nov - 02:03:23 10° SW 02:07:10 26° WNW 02:11:13 10° NNW daylight
23 Nov - 12:53:40 10° NNE 12:57:43 22° ENE 13:01:32 10° ESE night (unlit)
23 Nov - 14:35:24 10° WNW 14:39:31 23° WSW 14:43:25 10° SSW night (unlit)
24 Nov - 01:13:04 10° SSW 01:17:35 73° WNW 01:22:29 10° NNE daylight
24 Nov - 13:44:43 10° NNW 13:49:58 61° WSW 13:54:47 10° S night (unlit)
25 Nov - 00:23:49 10° S 00:28:02 39° ESE 00:32:33 10° NE daylight
25 Nov - 02:09:18 10° WNW 02:09:51 10° WNW 02:10:25 10° WNW daylight
25 Nov - 12:55:13 10° N 13:00:24 51° ENE 13:05:09 10° SE night (unlit)
25 Nov - 23:35:59 10° SE 23:38:28 14° ESE 23:41:01 10° ENE daylight
26 Nov - 01:16:17 10° SW 01:20:13 28° WNW 01:24:27 10° N daylight
26 Nov - 12:06:58 10° NNE 12:10:46 20° ENE 12:14:22 10° ESE night (unlit)
26 Nov - 13:48:21 10° NW 13:52:35 25° WSW 13:56:34 10° SSW night (unlit)
27 Nov - 00:26:05 10° SSW 00:30:38 80° WNW 00:35:34 10° NNE daylight
27 Nov - 12:57:47 10° NNW 13:03:02 66° WSW 13:07:51 10° SSE night (unlit)
27 Nov - 23:36:55 10° S 23:41:05 35° ESE 23:45:33 10° NE daylight
